[[{"header":{"parameterUnit":"m.s-1","parameterCategory":1,"la1":30.2992,"la2":30.254,"lo1":-89.0895,"lo2":-89.0443,"dy":0.0025,"dx":0.0025,"nx":19,"ny":19,"refTime":"2026-04-23T03:00:00:Z","depth":0,"parameterNumber":2,"parameterNumberName":"U-component_of_WINDS"},"data":[0,0,0,-3.6677,-3.6678,-3.6688,-3.6688,-3.6711,-3.6711,0,0,0,0,0,0,0,0,0,0,0,-3.6681,-3.6681,-3.6677,-3.6678,-3.6688,-3.6688,-3.6711,-3.6711,0,0,0,0,0,0,0,0,0,0,0,-3.6681,-3.6681,-3.6681,-3.6678,-3.6688,-3.6688,-3.671,-3.6699,0,0,0,0,0,0,0,0,0,0,-3.6688,-3.6697,-3.6681,-3.6681,-3.6678,-3.6688,-3.6688,-3.6699,-3.67,-3.6711,0,-3.6722,0,-3.6717,-3.6713,-3.6713,0,0,0,-3.6673,-3.6696,-3.6693,-3.6681,-3.6678,-3.6688,-3.6682,-3.6699,-3.6701,-3.6713,-3.6722,-3.6722,-3.6717,-3.6713,-3.6713,-3.6791,-3.6792,0,0,-3.6673,-3.6685,-3.6692,-3.6694,-3.6693,-3.6682,-3.6682,-3.67,-3.6711,-3.6722,-3.6723,-3.6718,-3.6714,-3.6714,-3.6791,-3.6791,0,0,0,-3.6674,-3.6685,-3.6682,-3.6694,-3.6695,-3.6682,-3.6683,-3.671,-3.6708,-3.6723,-3.6718,-3.6714,-3.6714,-3.679,-3.6791,-3.6832,0,0,0,-3.6674,-3.6686,-3.6682,-3.669,-3.6695,-3.6702,-3.6692,-3.6707,-3.6708,-3.6718,-3.6714,-3.6714,-3.6789,-3.679,-3.6829,-3.6848,0,0,0,-3.6678,-3.6687,-3.669,-3.6691,-3.6695,-3.6702,-3.6701,-3.6707,-3.6706,-3.6713,-3.6715,-3.6789,-3.679,-3.6827,-3.6844,-3.6872,0,0,0,-3.6686,-3.6726,-3.6691,-3.6734,-3.6695,-3.6728,-3.67,-3.6724,-3.6735,-3.6714,-3.6789,-3.6791,-3.6826,-3.6842,-3.6869,-3.6896,-3.6909,0,0,-3.6743,-3.6733,-3.6757,-3.6727,-3.6768,-3.6725,-3.6773,-3.6771,-3.676,-3.6782,-3.6783,-3.683,-3.6844,-3.6871,-3.6979,-3.6989,0,0,0,-3.678,-3.6797,-3.6806,-3.6818,-3.6819,-3.682,-3.681,-3.681,-3.6828,-3.6774,-3.6848,-3.6856,-3.6871,-3.6883,-3.6892,-3.6904,-3.6797,-3.6797,-3.6797,-3.6877,-3.6863,-3.6902,-3.6889,-3.6901,-3.6892,-3.69,-3.6898,-3.6879,-3.6897,-3.6902,-3.6969,-3.6984,-3.699,-3.7004,-3.6917,-3.6917,-3.6917,-3.6917,-3.6959,-3.6981,-3.6957,-3.6985,-3.697,-3.6994,-3.6988,-3.6974,-3.6994,-3.6964,-3.6976,-3.6942,-3.7002,-3.7013,-3.692,-3.6919,-3.6919,-3.6919,-3.6919,-3.702,-3.7028,-3.7028,-3.7045,-3.7061,-3.7047,-3.7068,-3.7053,-3.704,-3.7053,-3.7057,-3.7056,-3.7052,-3.7056,-3.7056,-3.7057,-3.7057,-3.7057,-3.7057,-3.7082,-3.7081,-3.71,-3.7107,-3.7114,-3.7121,-3.7114,-3.712,-3.7124,-3.7111,-3.7111,-3.709,-3.7012,-3.6991,-3.7061,-3.706,-3.706,-3.7059,-3.7059,-3.7166,-3.7146,-3.7176,-3.7183,-3.719,-3.7207,-3.7189,-3.7204,-3.7207,-3.7219,-3.7196,-3.7141,-3.7129,-3.7122,-3.7105,-3.7199,-3.7199,-3.7199,-3.7199,-3.7216,-3.721,-3.7239,-3.7251,-3.7262,-3.725,-3.7286,-3.7282,-3.7275,-3.7276,-3.7261,-3.7238,-3.7232,-3.7223,-3.7214,-3.7198,-3.7314,-3.7314,-3.7314,-3.7267,-3.7262,-3.7294,-3.7288,-3.7293,-3.7298,-3.7331,-3.7347,-3.7334,-3.7318,-3.7277,-3.7272,-3.7235,-3.7224,-3.7204,-3.719,-3.716,0,0]},{"header":{"parameterUnit":"m.s-1","parameterCategory":1,"la1":30.2992,"la2":30.254,"lo1":-89.0895,"lo2":-89.0443,"dy":0.0025,"dx":0.0025,"nx":19,"ny":19,"refTime":"2026-04-23T03:00:00:Z","depth":0,"parameterNumber":3,"parameterNumberName":"V-component_of_WINDS"},"data":[0,0,0,3.9212,3.9212,3.9195,3.9195,3.9165,3.9165,0,0,0,0,0,0,0,0,0,0,0,3.9213,3.9213,3.9212,3.9212,3.9195,3.9195,3.9165,3.9165,0,0,0,0,0,0,0,0,0,0,0,3.9213,3.9213,3.9212,3.9212,3.9195,3.9195,3.9165,3.918,0,0,0,0,0,0,0,0,0,0,3.9198,3.9195,3.9213,3.9212,3.9211,3.9195,3.9195,3.9181,3.9179,3.9169,0,3.916,0,3.9162,3.9162,3.9162,0,0,0,3.9214,3.9197,3.9196,3.9212,3.9211,3.9195,3.9203,3.918,3.9178,3.9167,3.916,3.9159,3.9162,3.9162,3.9162,3.91,3.91,0,0,3.9215,3.9207,3.9198,3.9195,3.9199,3.9204,3.9203,3.9179,3.9171,3.916,3.9159,3.9161,3.9162,3.9161,3.9101,3.91,0,0,0,3.9216,3.9208,3.9208,3.9196,3.9194,3.9203,3.9202,3.9172,3.9173,3.9158,3.9161,3.9161,3.9161,3.9101,3.9101,3.9075,0,0,0,3.9217,3.9209,3.9208,3.9204,3.9194,3.9183,3.9195,3.9174,3.9172,3.9161,3.9161,3.9161,3.9102,3.9101,3.9076,3.9062,0,0,0,3.9215,3.9209,3.9205,3.9203,3.9196,3.9183,3.9183,3.9174,3.9173,3.9162,3.9161,3.9102,3.9101,3.9078,3.9065,3.9044,0,0,0,3.9211,3.918,3.9205,3.9171,3.9196,3.9168,3.9183,3.9162,3.9149,3.9161,3.9102,3.9101,3.9078,3.9067,3.9046,3.9025,3.9016,0,0,3.9168,3.9175,3.9156,3.9177,3.9143,3.9171,3.9133,3.9127,3.9132,3.911,3.9109,3.9076,3.9065,3.9045,3.897,3.8963,0,0,0,3.914,3.9126,3.9119,3.9108,3.9105,3.91,3.9102,3.91,3.9083,3.912,3.9063,3.9057,3.9046,3.9036,3.903,3.902,3.9096,3.9096,3.9096,3.9066,3.9076,3.9046,3.9054,3.9043,3.9047,3.9039,3.9037,3.9048,3.9035,3.9027,3.8981,3.897,3.8965,3.8955,3.9018,3.9018,3.9018,3.9018,3.9003,3.8984,3.9004,3.8981,3.8992,3.8972,3.8974,3.8984,3.8966,3.8987,3.8977,3.8998,3.8957,3.8948,3.9016,3.9017,3.9017,3.9017,3.9017,3.8954,3.8947,3.8948,3.8935,3.8923,3.8933,3.8916,3.8926,3.8935,3.8925,3.8919,3.8919,3.892,3.8922,3.8922,3.8922,3.8922,3.8922,3.8922,3.8903,3.8905,3.889,3.8887,3.8882,3.8877,3.8882,3.8877,3.8874,3.8882,3.8882,3.8895,3.8952,3.8966,3.8919,3.8919,3.892,3.892,3.892,3.8833,3.8851,3.8829,3.8824,3.8821,3.8809,3.8824,3.8813,3.8811,3.8802,3.8818,3.8859,3.8866,3.8871,3.8882,3.8817,3.8817,3.8817,3.8817,3.8791,3.8797,3.8777,3.877,3.8763,3.8775,3.8748,3.8753,3.8759,3.8758,3.877,3.8786,3.8791,3.8795,3.8801,3.8812,3.873,3.873,3.873,3.8748,3.8754,3.873,3.8739,3.8738,3.8737,3.8713,3.8702,3.8713,3.8726,3.8758,3.8761,3.8788,3.8796,3.8807,3.8817,3.8836,0,0]}]]